Terminal Aerodrome Forecast
Issued by NWS

Home | Current Version | Previous Version | Text Only | Print | Product List | Glossary On
Versions: 1 2 3 4 5 6 7 8 9 10 11 12 13 14 15 16 17 18 19 20 21 22 23 24 25 26 27
000
FTUS45 KLKN 022300
TAFELY
TAF
KELY 022320Z 0300/0324 19013G23KT P6SM FEW100
     FM030600 18008KT P6SM SKC
     FM032100 22012G22KT P6SM SCT100=

USA.gov is the U.S. government's official web portal to all federal, state and local government web resources and services.